Location: Santa Cristina
(46.5667°N, 11.7167°E)
Time: 07:30:02
(UTC+00:00)

NOSS 3-4 (C) - Pass Details

Date: 21 April 2021
Orbit: 873 x 1339 km, 63.4° (Epoch: 27 April)

Event Time Altitude Azimuth Distance (km) Brightness Sun altitude
Rises 01:46:47 0° 320° (NW) 3,803 6.7 -22.0°
Reaches altitude 10° 01:49:17 10° 320° (NW) 2,910 6.1 -21.8°
Maximum altitude 01:56:17 90° 301° (WNW) 1,171 3.8 -20.9°
Drops below altitude 10° 02:04:06 10° 143° (SE) 3,232 6.1 -20.0°
Sets 02:07:01 0° 144° (SE) 4,246 6.8 -19.6°
